TimeEST,TemperatureF,Dew PointF,Humidity,Sea Level PressureIn,VisibilityMPH,Wind Direction,Wind SpeedMPH,Gust SpeedMPH,PrecipitationIn,Events,Conditions,WindDirDegrees,DateUTC
12:15 AM,46.4,46.4,100,30.03,1.8,Calm,Calm,-,N/A,,Mostly Cloudy,0,2012-12-09 05:15:00
12:55 AM,46.4,46.4,100,30.04,1.8,NW,4.6,-,N/A,,Overcast,310,2012-12-09 05:55:00
1:15 AM,46.4,46.4,100,30.05,1.5,NW,5.8,-,N/A,,Mostly Cloudy,320,2012-12-09 06:15:00
1:35 AM,46.4,46.4,100,30.06,1.2,West,3.5,-,N/A,,Overcast,280,2012-12-09 06:35:00
2:15 AM,46.4,46.4,100,30.06,1.8,WNW,4.6,-,N/A,,Scattered Clouds,290,2012-12-09 07:15:00
2:35 AM,46.4,46.4,100,30.07,1.5,NNW,4.6,-,N/A,,Scattered Clouds,330,2012-12-09 07:35:00
2:55 AM,44.6,44.6,100,30.07,1.5,Calm,Calm,-,N/A,,Clear,0,2012-12-09 07:55:00
3:15 AM,46.4,46.4,100,30.08,1.8,Calm,Calm,-,N/A,,Clear,0,2012-12-09 08:15:00
3:35 AM,44.6,44.6,100,30.08,1.0,NNW,3.5,-,N/A,,Clear,340,2012-12-09 08:35:00
3:55 AM,44.6,44.6,100,30.08,0.2,North,4.6,-,N/A,Fog,Fog,360,2012-12-09 08:55:00
4:15 AM,46.4,46.4,100,30.08,3.0,North,3.5,-,N/A,,Clear,360,2012-12-09 09:15:00
4:35 AM,46.4,46.4,100,30.09,4.0,North,4.6,-,N/A,,Clear,10,2012-12-09 09:35:00
4:55 AM,46.4,46.4,100,30.10,4.0,North,5.8,-,N/A,,Clear,10,2012-12-09 09:55:00
5:15 AM,46.4,46.4,100,30.12,4.0,North,5.8,-,N/A,,Clear,360,2012-12-09 10:15:00
5:35 AM,46.4,46.4,100,30.13,4.0,North,4.6,-,N/A,,Mostly Cloudy,10,2012-12-09 10:35:00
5:55 AM,48.2,46.4,93,30.14,5.0,NNE,5.8,-,N/A,,Mostly Cloudy,20,2012-12-09 10:55:00
6:15 AM,48.2,46.4,93,30.15,5.0,NNE,5.8,-,N/A,Rain,Light Rain,30,2012-12-09 11:15:00
6:35 AM,48.2,46.4,93,30.15,6.0,NE,4.6,-,N/A,,Mostly Cloudy,40,2012-12-09 11:35:00
6:55 AM,46.4,44.6,93,30.16,8.0,NNE,8.1,-,N/A,,Mostly Cloudy,20,2012-12-09 11:55:00
7:15 AM,46.4,44.6,93,30.18,10.0,NE,4.6,-,N/A,Rain,Light Rain,40,2012-12-09 12:15:00
7:35 AM,46.4,44.6,93,30.18,8.0,NE,3.5,-,N/A,,Mostly Cloudy,40,2012-12-09 12:35:00
7:55 AM,46.4,44.6,93,30.19,5.0,NE,5.8,-,N/A,Rain,Light Rain,50,2012-12-09 12:55:00
8:15 AM,46.4,42.8,87,30.20,4.0,NE,5.8,-,0.01,Rain,Light Rain,40,2012-12-09 13:15:00
8:35 AM,44.6,44.6,100,30.21,5.0,NE,3.5,-,0.02,Rain,Light Rain,50,2012-12-09 13:35:00
9:35 AM,44.6,42.8,93,30.23,2.5,ENE,6.9,-,0.12,Rain,Rain,60,2012-12-09 14:35:00
9:55 AM,44.6,42.8,93,30.23,3.0,NE,5.8,-,0.19,Rain,Light Rain,50,2012-12-09 14:55:00
10:15 AM,44.6,42.8,93,30.22,7.0,NE,5.8,-,N/A,Rain,Light Rain,50,2012-12-09 15:15:00
10:35 AM,44.6,42.8,93,30.22,5.0,Calm,Calm,-,0.01,Rain,Light Rain,0,2012-12-09 15:35:00
10:55 AM,44.6,42.8,93,30.21,4.0,NE,4.6,-,0.04,Rain,Light Rain,50,2012-12-09 15:55:00
11:15 AM,42.8,42.8,100,30.21,3.0,NE,3.5,-,0.02,Rain,Heavy Rain,40,2012-12-09 16:15:00
11:35 AM,44.6,42.8,93,30.19,4.0,NE,4.6,-,0.05,Rain,Rain,40,2012-12-09 16:35:00
11:55 AM,44.6,42.8,93,30.19,4.0,ENE,4.6,-,0.06,Rain,Light Rain,60,2012-12-09 16:55:00
12:15 PM,44.6,42.8,93,30.18,3.0,ENE,4.6,-,N/A,,Overcast,60,2012-12-09 17:15:00
12:35 PM,42.8,42.8,100,30.17,5.0,ENE,5.8,-,N/A,,Overcast,70,2012-12-09 17:35:00
12:55 PM,44.6,42.8,93,30.16,2.0,ENE,6.9,-,N/A,,Overcast,70,2012-12-09 17:55:00
1:15 PM,42.8,42.8,100,30.16,2.0,Calm,Calm,-,N/A,Rain,Light Rain,0,2012-12-09 18:15:00
1:35 PM,42.8,42.8,100,30.16,2.0,Calm,Calm,-,N/A,,Overcast,0,2012-12-09 18:35:00
1:55 PM,42.8,42.8,100,30.16,2.0,NE,3.5,-,N/A,,Overcast,50,2012-12-09 18:55:00
2:15 PM,42.8,42.8,100,30.15,2.5,NE,3.5,-,N/A,Rain,Light Rain,50,2012-12-09 19:15:00
2:35 PM,42.8,42.8,100,30.16,4.0,NE,5.8,-,N/A,,Overcast,50,2012-12-09 19:35:00
2:55 PM,42.8,42.8,100,30.16,2.5,ENE,6.9,-,N/A,,Overcast,60,2012-12-09 19:55:00
3:15 PM,42.8,42.8,100,30.16,1.2,ENE,6.9,-,N/A,,Overcast,70,2012-12-09 20:15:00
3:35 PM,42.8,42.8,100,30.16,1.8,East,6.9,-,N/A,,Overcast,80,2012-12-09 20:35:00
3:55 PM,42.8,42.8,100,30.16,1.0,ENE,3.5,-,N/A,,Overcast,60,2012-12-09 20:55:00
4:15 PM,42.8,42.8,100,30.16,0.8,East,11.5,19.6,N/A,,Overcast,80,2012-12-09 21:15:00
4:35 PM,42.8,42.8,100,30.15,0.8,East,12.7,19.6,N/A,,Overcast,80,2012-12-09 21:35:00
4:55 PM,41.0,41.0,100,30.15,1.5,East,15.0,21.9,N/A,,Overcast,80,2012-12-09 21:55:00
5:15 PM,41.0,41.0,100,30.16,1.8,East,12.7,23.0,N/A,,Overcast,80,2012-12-09 22:15:00
5:35 PM,41.0,41.0,100,30.15,1.8,East,10.4,18.4,N/A,,Overcast,80,2012-12-09 22:35:00
5:55 PM,41.0,41.0,100,30.14,1.2,ENE,9.2,17.3,N/A,,Overcast,70,2012-12-09 22:55:00
6:15 PM,41.0,41.0,100,30.15,1.2,East,11.5,17.3,N/A,,Overcast,80,2012-12-09 23:15:00
6:35 PM,41.0,41.0,100,30.13,1.2,East,11.5,17.3,N/A,Rain,Light Rain,80,2012-12-09 23:35:00
6:55 PM,41.0,41.0,100,30.13,1.2,East,10.4,21.9,0.01,,Overcast,80,2012-12-09 23:55:00
7:15 PM,41.0,41.0,100,30.12,1.2,East,10.4,20.7,N/A,,Overcast,80,2012-12-10 00:15:00
7:55 PM,41.0,41.0,100,30.10,1.0,East,9.2,19.6,N/A,,Overcast,80,2012-12-10 00:55:00
8:15 PM,41.0,41.0,100,30.09,1.0,East,11.5,18.4,N/A,,Overcast,80,2012-12-10 01:15:00
8:35 PM,41.0,41.0,100,30.09,1.0,East,11.5,-,N/A,,Overcast,80,2012-12-10 01:35:00
8:55 PM,41.0,41.0,100,30.09,0.8,NNE,4.6,-,N/A,,Overcast,30,2012-12-10 01:55:00
9:35 PM,41.0,41.0,100,30.07,1.0,Calm,Calm,-,N/A,Rain,Light Rain,0,2012-12-10 02:35:00
9:55 PM,41.0,41.0,100,30.07,1.0,North,5.8,-,0.03,Rain,Light Rain,10,2012-12-10 02:55:00
10:15 PM,41.0,41.0,100,30.05,2.0,Calm,Calm,-,0.03,,Overcast,0,2012-12-10 03:15:00
10:35 PM,41.0,41.0,100,30.04,1.8,Calm,Calm,-,0.03,Rain,Light Rain,0,2012-12-10 03:35:00
11:15 PM,41.0,41.0,100,30.02,1.0,East,4.6,-,N/A,,Overcast,80,2012-12-10 04:15:00
11:35 PM,41.0,41.0,100,30.01,0.5,ENE,3.5,-,N/A,Fog,Fog,70,2012-12-10 04:35:00
11:55 PM,41.0,41.0,100,29.99,0.2,Calm,Calm,-,N/A,Fog,Fog,0,2012-12-10 04:55:00